Location: Altacanyada
(34.2222°N, 118.2120°W)
Time: 09:58:50
(UTC+00:00)

Daily predictions for brighter satellites

Satellite Brightness Start Highest point End
(mag) Time Altitude Azimuth Time Altitude Azimuth Time Altitude Azimuth
DMSP B5D2-2 4.0 12:02:01 10° S 12:07:12 71° WSW 12:12:26 10° NNW
Lacrosse 5 rocket 1.1 12:07:17 10° NW 12:11:13 84° SW 12:14:57 10° SE
Nadezhda 3 Rocket 4.1 12:06:25 10° NNW 12:12:38 58° W 12:18:46 10° S
RESURS DK-1 2.2 12:09:02 10° NNW 12:13:06 74° WSW 12:17:07 10° SSE
ATLAS CENTAUR R/B 1.5 12:09:58 10° SSW 12:13:23 56° ESE 12:16:49 10° NE
Cosmos 2341 Rocket 4.2 12:07:26 10° S 12:13:43 82° E 12:19:59 10° N
CBERS-1 4.3 12:10:13 10° NNE 12:15:19 74° ESE 12:20:24 10° S
Cosmos 2322 Rocket 3.0 12:11:45 10° NW 12:16:36 30° WSW 12:21:27 10° SSW
IRS-1D 4.2 12:12:28 10° N 12:17:23 39° WNW 12:22:15 10° SW
OAO 3 Rocket 3.3 12:12:38 10° W 12:17:33 88° NNE 12:22:23 10° E
Cosmos 2297 Rocket 3.3 12:13:45 10° S 12:19:04 44° ESE 12:24:25 10° NE
ASTEX 1 3.9 12:16:06 10° SSW 12:20:44 40° W 12:25:23 10° NNW
